This demonstration page uses our WeatherBlox Daily Observations layout. Learn more.

Left ArrowRight Arrow

53.62937, 11.41316

Hourly Observations for April 7, 2016

Temp ( °F °C ) Dew Point ( °F °C ) Humidity (%) Winds ( mph kmh ) Pressure ( in mb ) Visibility ( mi km ) Precip ( " mm )
6:20 am 06:20 Mostly Clear 41 5 37 3 87 87 SSW 13 20 29.68 1005 7 11 N/A
6:50 am 06:50 Mostly Sunny 41 5 37 3 87 87 SSW 13 20 29.68 1005 7 11 N/A
7:20 am 07:20 Mostly Sunny 41 5 37 3 87 87 SSW 15 24 29.68 1005 7 11 N/A
7:50 am 07:50 Mostly Sunny 43 6 37 3 81 81 SSW 16 26 29.68 1005 7 11 N/A
8:20 am 08:20 Mostly Sunny 45 7 37 3 76 76 SSW 16 26 29.71 1006 7 11 N/A
8:50 am 08:50 Mostly Sunny 45 7 37 3 76 76 SW 18 30 29.71 1006 7 11 N/A
9:20 am 09:20 Mostly Sunny 46 8 39 4 76 76 SW 18 30 29.71 1006 7 11 N/A
9:50 am 09:50 Mostly Sunny 46 8 39 4 76 76 SW 20 31 29.71 1006 30 48 N/A
10:20 am 10:20 Mostly Sunny 48 9 37 3 66 66 SW 18 30 29.71 1006 30 48 N/A
10:50 am 10:50 Mostly Sunny 48 9 37 3 66 66 SW 20 31 29.71 1006 30 48 N/A
11:20 am 11:20 Partly Cloudy 50 10 36 2 58 58 SW 23 37 29.71 1006 30 48 N/A
11:50 am 11:50 Partly Cloudy 50 10 36 2 58 58 SW 22 35 29.71 1006 30 48 N/A
12:20 pm 12:20 Partly Cloudy 52 11 36 2 54 54 WSW 20 31 29.74 1007 30 48 N/A
12:50 pm 12:50 Partly Cloudy 50 10 34 1 54 54 SW 17 28 29.74 1007 30 48 N/A
1:20 pm 13:20 Partly Cloudy 54 12 36 2 51 51 SSW 16 26 29.71 1006 30 48 N/A
1:50 pm 13:50 Mostly Cloudy with Light Rain 50 10 36 2 58 58 WSW 18 30 29.74 1007 30 48 N/A
2:20 pm 14:20 Partly Cloudy 54 12 36 2 51 51 WSW 18 30 29.74 1007 30 48 N/A
2:50 pm 14:50 Partly Cloudy 52 11 34 1 50 50 WSW 22 35 29.74 1007 30 48 N/A
3:20 pm 15:20 Mostly Cloudy 50 10 30 -1 47 47 SSW 18 30 29.74 1007 30 48 N/A
3:50 pm 15:50 Partly Cloudy 52 11 34 1 50 50 SSW 15 24 29.74 1007 30 48 N/A
3:57 pm 15:57 Partly Cloudy with Light Rain 50 10 34 1 54 54 SW 17 28 29.74 1007 30 48 N/A
4:20 pm 16:20 Partly Cloudy 50 10 34 1 54 54 WSW 10 17 29.74 1007 30 48 N/A
4:50 pm 16:50 Mostly Sunny 52 11 34 1 50 50 SW 17 28 29.74 1007 30 48 N/A
5:20 pm 17:20 Partly Cloudy 54 12 34 1 47 47 SW 17 28 29.74 1007 30 48 N/A
5:36 pm 17:36 Partly Cloudy 54 12 32 0 44 44 SSW 16 26 29.74 1007 30 48 N/A
5:50 pm 17:50 Partly Cloudy 54 12 32 0 44 44 SW 23 37 29.74 1007 30 48 N/A
6:20 pm 18:20 Partly Cloudy 52 11 32 0 47 47 SW 16 26 29.74 1007 30 48 N/A
6:50 pm 18:50 Partly Cloudy 52 11 32 0 47 47 SW 12 19 29.74 1007 30 48 N/A

Powered by AerisWeather